This demonstration page uses our WeatherBlox Daily Observations layout. Learn more.

Hourly Observations for June 23, 2018

Temp ( °F °C ) Dew Point ( °F °C ) Humidity (%) Winds ( mph kmh ) Pressure ( in mb ) Visibility ( mi km ) Precip ( " mm )
12:15 am 00:15 Cloudy with Light Rain 64 17.5 62 16.7 95 95 NW 6 9 29.83 1010 10 16.09344 0 0
12:35 am 00:35 Cloudy with Nearby Thunderstorms 64 17.5 63 17 97 97 WNW 8 13 29.85 1011 10 16.09344 0 0
12:55 am 00:55 Cloudy with Thunderstorms 64 17.6 63 17.1 97 97 W 7 11 29.85 1011 10 16.09344 0 0
1:15 am 01:15 Cloudy with Light Rain 64 17.7 63 17.3 98 98 W 8 13 29.85 1011 10 16.09344 0 0
1:35 am 01:35 Cloudy with Thunderstorms 64 17.8 63 17.1 96 96 SSW 5 7 29.8 1009 10 16.09344 0 0
1:55 am 01:55 Partly Cloudy 63 17.2 62 16.5 96 96 SSW 3 6 29.8 1009 10 16.09344 0 0
2:15 am 02:15 Clear 62 16.5 61 16.1 98 98 SE 9 15 29.74 1007 10 16.09344 0 0
2:35 am 02:35 Clear 62 16.4 61 16.2 99 99 SE 8 13 29.74 1007 10 16.09344 0 0
2:55 am 02:55 Clear 61 16.3 61 16.2 99 99 S 5 7 29.74 1007 10 16.09344 0 0
3:15 am 03:15 Clear 62 16.4 61 16.2 99 99 S 9 15 29.74 1007 10 16.09344 0 0
3:35 am 03:35 Clear 62 16.5 61 16.1 98 98 S 9 15 29.74 1007 10 16.09344 0 0
3:55 am 03:55 Clear 61 16 60 15.6 97 97 SW 5 7 29.74 1007 10 16.09344 0 0
4:15 am 04:15 Clear 60 15.6 60 15.6 100 100 SW 5 7 29.74 1007 10 16.09344 0 0
4:35 am 04:35 Clear 60 15.7 60 15.7 100 100 W 8 13 29.77 1008 10 16.09344 0 0
4:55 am 04:55 Clear 60 15.7 60 15.7 100 100 WSW 7 11 29.77 1008 10 16.09344 0 0
5:15 am 05:15 Clear 60 15.6 60 15.5 99 99 WSW 7 11 29.77 1008 10 16.09344 0 0
5:35 am 05:35 Clear 60 15.3 59 15 98 98 W 12 19 29.77 1008 10 16.09344 0 0
5:55 am 05:55 Clear 59 15.1 58 14.7 97 97 W 8 13 29.77 1008 10 16.09344 0 0
6:15 am 06:15 Sunny 59 15.1 58 14.5 96 96 W 9 15 29.77 1008 10 16.09344 0 0
6:35 am 06:35 Sunny 60 15.6 58 14.5 93 93 WSW 9 15 29.77 1008 10 16.09344 0 0
6:55 am 06:55 Sunny 60 15.7 58 14.5 93 93 W 10 17 29.77 1008 10 16.09344 0 0
7:15 am 07:15 Sunny 62 16.4 58 14.7 90 90 W 8 13 29.77 1008 10 16.09344 0 0
7:35 am 07:35 Sunny 63 17.2 58 14.7 85 85 W 8 13 29.77 1008 10 16.09344 0 0
7:55 am 07:55 Sunny 64 17.7 58 14.5 82 82 WSW 9 15 29.74 1007 10 16.09344 0 0
8:15 am 08:15 Sunny 65 18.3 59 15.1 82 82 W 7 11 29.74 1007 10 16.09344 0 0
8:35 am 08:35 Sunny 66 19.1 60 15.3 79 79 W 8 13 29.74 1007 10 16.09344 0 0
8:55 am 08:55 Sunny 68 19.9 60 15.8 77 77 W 9 15 29.74 1007 10 16.09344 0 0
9:15 am 09:15 Sunny 69 20.5 60 15.7 74 74 W 8 13 29.74 1007 10 16.09344 0 0
9:35 am 09:35 Sunny 71 21.4 61 16.2 72 72 WSW 8 13 29.71 1006 10 16.09344 0 0
9:55 am 09:55 Sunny 72 22 60 15.8 68 68 W 7 11 29.71 1006 10 16.09344 0 0
10:15 am 10:15 Sunny 74 23.1 60 15.6 63 63 W 8 13 29.71 1006 10 16.09344 0 0
10:35 am 10:35 Sunny 74 23.3 60 15.7 62 62 W 10 17 29.71 1006 10 16.09344 0 0
10:55 am 10:55 Sunny 75 23.7 60 15.7 61 61 WNW 7 11 29.71 1006 10 16.09344 0 0
11:15 am 11:15 Sunny 76 24.3 61 16 60 60 WNW 6 9 29.71 1006 10 16.09344 0 0
11:35 am 11:35 Sunny 76 24.5 61 16.2 60 60 W 5 7 29.71 1006 10 16.09344 0 0
11:55 am 11:55 Sunny 76 24.7 60 15.5 57 57 WNW 6 9 29.71 1006 10 16.09344 0 0
12:15 pm 12:15 Sunny 77 25.1 61 16.2 58 58 WNW 5 7 29.68 1005 10 16.09344 0 0
12:35 pm 12:35 Sunny 78 25.6 61 16.2 56 56 WNW 8 13 29.68 1005 10 16.09344 0 0
12:55 pm 12:55 Sunny 79 26.1 62 16.7 56 56 W 9 15 29.68 1005 10 16.09344 0 0
1:15 pm 13:15 Sunny 79 26 61 16.2 55 55 WSW 3 6 29.68 1005 10 16.09344 0 0
1:35 pm 13:35 Sunny 80 26.8 62 16.8 54 54 W 7 11 29.68 1005 10 16.09344 0 0
1:55 pm 13:55 Sunny 81 27.1 62 16.4 52 52 W 7 11 29.65 1004 10 16.09344 0 0
2:15 pm 14:15 Partly Cloudy 82 27.6 63 17.1 53 53 W 5 7 29.65 1004 10 16.09344 0 0
2:35 pm 14:35 Partly Cloudy 82 28 60 15.8 47 47 W 5 7 29.65 1004 10 16.09344 0 0
2:55 pm 14:55 Partly Cloudy 82 28 62 16.4 49 49 SW 9 15 29.65 1004 10 16.09344 0 0
3:15 pm 15:15 Partly Cloudy 83 28.6 62 16.5 48 48 SW 10 17 29.62 1003 10 16.09344 0 0
3:35 pm 15:35 Partly Cloudy 84 28.7 60 15.7 45 45 SW 8 13 29.62 1003 10 16.09344 0 0
3:55 pm 15:55 Partly Cloudy 84 28.8 61 16 46 46 SSW 6 9 29.62 1003 10 16.09344 0 0
4:15 pm 16:15 Sunny 84 29 60 15.7 44 44 S 7 11 29.62 1003 10 16.09344 0 0
4:35 pm 16:35 Sunny 84 29.1 60 15.6 44 44 S 9 15 29.62 1003 10 16.09344 0 0
4:55 pm 16:55 Sunny 85 29.2 60 15.5 43 43 SSW 9 15 29.62 1003 10 16.09344 0 0
5:15 pm 17:15 Sunny 85 29.5 58 14.6 40 40 SSW 7 11 29.62 1003 10 16.09344 0 0
5:35 pm 17:35 Sunny 85 29.7 58 14.4 39 39 SW 7 11 29.62 1003 10 16.09344 0 0
5:55 pm 17:55 Sunny 85 29.5 57 14.1 39 39 SW 8 13 29.59 1002 10 16.09344 0 0
6:15 pm 18:15 Sunny 85 29.5 59 14.9 41 41 SSW 9 15 29.59 1002 10 16.09344 0 0
6:35 pm 18:35 Sunny 85 29.5 60 15.3 42 42 SSW 8 13 29.59 1002 10 16.09344 0 0
6:55 pm 18:55 Sunny 85 29.3 60 15.3 43 43 S 9 15 29.59 1002 10 16.09344 0 0
7:15 pm 19:15 Sunny 84 28.8 60 15.5 44 44 SSW 10 17 29.59 1002 10 16.09344 0 0
7:35 pm 19:35 Sunny 83 28.3 61 16 47 47 S 10 17 29.65 1004 10 16.09344 0 0
7:55 pm 19:55 Sunny 79 26.2 61 16.2 54 54 SSW 12 19 29.65 1004 10 16.09344 0 0
8:15 pm 20:15 Sunny 78 25.5 62 16.5 58 58 SSW 12 19 29.65 1004 10 16.09344 0 0
8:35 pm 20:35 Sunny 77 25 62 16.5 59 59 S 10 17 29.65 1004 10 16.09344 0 0
8:55 pm 20:55 Sunny 76 24.6 62 16.5 61 61 S 8 13 29.65 1004 10 16.09344 0 0
9:15 pm 21:15 Clear 75 24 62 16.5 63 63 SSW 10 17 29.68 1005 10 16.09344 0 0
9:35 pm 21:35 Clear 73 23 62 16.7 68 68 SSW 8 13 29.68 1005 10 16.09344 0 0
9:55 pm 21:55 Clear 73 22.6 60 15.6 65 65 SW 6 9 29.68 1005 10 16.09344 0 0
10:15 pm 22:15 Clear 73 22.7 57 13.7 57 57 SSW 6 9 29.68 1005 10 16.09344 0 0
10:35 pm 22:35 Clear 73 22.8 55 13 54 54 S 7 11 29.68 1005 10 16.09344 0 0
10:55 pm 22:55 Clear 72 22.3 55 12.6 54 54 S 8 13 29.65 1004 10 16.09344 0 0
11:15 pm 23:15 Clear 69 20.4 57 13.9 66 66 S 5 7 29.68 1005 10 16.09344 0 0
11:35 pm 23:35 Clear 68 19.9 57 14 69 69 SW 3 6 29.71 1006 10 16.09344 0 0
11:55 pm 23:55 Clear 67 19.7 57 13.9 69 69 Calm 29.71 1006 10 16.09344 0 0

Powered by AerisWeather